This is the latest recevied weather packets stored in our database for station/object KC3DGM. If no packets are shown the sender has not sent any weather packets the latest 1 day(s).
| Time | Temp. | Humidity | Pressure | Rain* | Wind** | Luminosity | Snow |
|---|---|---|---|---|---|---|---|
| 1777981012 | 17.22° C | 72% | 977.6 hPa | 0 mm | 0.45 m/s, 278° | 46 W/m² | - |
| 1777980709 | 17.22° C | 72% | 977.6 hPa | 0 mm | 0.89 m/s, 278° | 23 W/m² | - |
| 1777980405 | 17.22° C | 73% | 977.3 hPa | 0 mm | 1.34 m/s, 96° | 32 W/m² | - |
| 1777980103 | 17.22° C | 72% | 977.5 hPa | 0 mm | 1.34 m/s, 256° | 27 W/m² | - |
| 1777979803 | 17.22° C | 72% | 977.3 hPa | 0 mm | 0.89 m/s, 265° | 27 W/m² | - |
| 1777979499 | 17.22° C | 72% | 977.5 hPa | 0 mm | 1.79 m/s, 0° | 34 W/m² | - |
| 1777979195 | 17.22° C | 73% | 977.2 hPa | 0 mm | 0 m/s | 30 W/m² | - |
| 1777978893 | 17.22° C | 73% | 977.1 hPa | 0 mm | 1.79 m/s, 290° | 26 W/m² | - |
| 1777978589 | 17.22° C | 73% | 977 hPa | 0 mm | 0.89 m/s, 260° | 20 W/m² | - |
| 1777978285 | 16.67° C | 74% | 977 hPa | 0 mm | 0.45 m/s, 247° | 19 W/m² | - |
| 1777977982 | 17.22° C | 72% | 977.1 hPa | 0 mm | 0.45 m/s, 288° | 18 W/m² | - |
| 1777977680 | 17.22° C | 72% | 976.7 hPa | 0 mm | 1.34 m/s, 271° | 16 W/m² | - |
| 1777977376 | 17.22° C | 73% | 976.8 hPa | 0 mm | 0 m/s | 12 W/m² | - |
| 1777977074 | 16.67° C | 73% | 976.7 hPa | 0 mm | 0 m/s | 9 W/m² | - |
| 1777976771 | 17.22° C | 72% | 976.5 hPa | 0 mm | 0 m/s | 6 W/m² | - |
| 1777976468 | 17.22° C | 72% | 976.9 hPa | 0 mm | 0.89 m/s, 243° | 3 W/m² | - |
| 1777976167 | 17.22° C | 72% | 976.8 hPa | 0 mm | 0.45 m/s, 274° | 0 W/m² | - |
| 1777975863 | 17.22° C | 72% | 976.7 hPa | 0 mm | 0.45 m/s, 287° | 0 W/m² | - |
| 1777975559 | 17.22° C | 71% | 976.9 hPa | 0 mm | 0.89 m/s, 248° | 0 W/m² | - |
| 1777975256 | 17.78° C | 70% | 976.7 hPa | 0 mm | 0 m/s | 0 W/m² | - |
| 1777974952 | 17.78° C | 69% | 976.7 hPa | 0 mm | 1.79 m/s, 219° | 0 W/m² | - |
| 1777974649 | 17.78° C | 70% | 976.7 hPa | 0 mm | 0.89 m/s, 233° | 0 W/m² | - |
| 1777974346 | 17.78° C | 69% | 976.4 hPa | 0 mm | 0.89 m/s, 336° | 0 W/m² | - |
| 1777974042 | 17.78° C | 69% | 976.4 hPa | 0 mm | 0.89 m/s, 299° | 0 W/m² | - |
| 1777973738 | 17.78° C | 69% | 976.7 hPa | 0 mm | 0.45 m/s, 258° | 0 W/m² | - |
* Rain latest hour (hover to see other rain measurements)
** Current wind speed in m/s (hover to see current wind gust speed)